| time (UTC) | temp F | wind direction | speed knots | gust knots | rain 1hr in | rain 24hr in | rain mn in | humidity % | barometer mb |
| 20260505152053 | 79 | 131 | 1.7 | 4.3 | 0.00 | 0.00 | 0.00 | 36 | 1013.6 |
| 20260505151548 | 78 | 177 | 0.9 | 2.6 | 0.00 | 0.00 | 0.00 | 39 | 1013.7 |
| 20260505151046 | 78 | 278 | 2.6 | 5.2 | 0.00 | 0.00 | 0.00 | 39 | 1013.6 |
| 20260505150542 | 78 | 196 | 2.6 | 6.1 | 0.00 | 0.00 | 0.00 | 39 | 1013.7 |
| 20260505140507 | 74 | 169 | 2.6 | 5.2 | 0.00 | 0.00 | 0.00 | 42 | 1013.9 |
| 20260505124921 | 67 | 34 | 2.6 | 4.3 | 0.00 | 0.00 | 0.00 | 53 | 1014.4 |
| 20260505124418 | 66 | 211 | 3.5 | 4.3 | 0.00 | 0.00 | 0.00 | 53 | 1014.4 |
| 20260505123914 | 66 | 158 | 1.7 | 6.1 | 0.00 | 0.00 | 0.00 | 54 | 1014.3 |
| 20260505123411 | 66 | 63 | 2.6 | 2.6 | 0.00 | 0.00 | 0.00 | 54 | 1014.3 |
| 20260505122906 | 66 | 209 | 3.5 | 5.2 | 0.00 | 0.00 | 0.00 | 54 | 1014.2 |
| 20260505122404 | 66 | 235 | 3.5 | 5.2 | 0.00 | 0.00 | 0.00 | 54 | 1014.0 |
| 20260505121900 | 65 | 301 | 4.3 | 5.2 | 0.00 | 0.00 | 0.00 | 55 | 1014.0 |
| 20260505121358 | 65 | 35 | 3.5 | 5.2 | 0.00 | 0.00 | 0.00 | 55 | 1014.1 |
| 20260505120853 | 65 | 221 | 3.5 | 4.3 | 0.00 | 0.00 | 0.00 | 56 | 1014.1 |
| 20260505120350 | 64 | 201 | 0.9 | 2.6 | 0.00 | 0.00 | 0.00 | 56 | 1014.0 |
| 20260505115848 | 64 | 137 | 2.6 | 5.2 | 0.00 | 0.00 | 0.00 | 57 | 1014.0 |
| 20260505115346 | 64 | 200 | 1.7 | 4.3 | 0.00 | 0.00 | 0.00 | 57 | 1014.1 |
| 20260505114844 | 64 | 152 | 2.6 | 4.3 | 0.00 | 0.00 | 0.00 | 58 | 1014.1 |
| 20260505114340 | 63 | 104 | 2.6 | 2.6 | 0.00 | 0.00 | 0.00 | 59 | 1014.1 |
| 20260505113836 | 63 | 19 | 2.6 | 4.3 | 0.00 | 0.00 | 0.00 | 59 | 1014.0 |
| 20260505113333 | 62 | 91 | 0.9 | 2.6 | 0.00 | 0.00 | 0.00 | 60 | 1014.0 |
| 20260505112828 | 62 | 36 | 2.6 | 4.3 | 0.00 | 0.00 | 0.00 | 60 | 1013.9 |
| 20260505112326 | 62 | 330 | 1.7 | 1.7 | 0.00 | 0.00 | 0.00 | 61 | 1014.0 |
| 20260505111821 | 61 | 17 | 1.7 | 1.7 | 0.00 | 0.00 | 0.00 | 61 | 1013.9 |
| 20260505111317 | 61 | 78 | 0.0 | 0.9 | 0.00 | 0.00 | 0.00 | 62 | 1013.8 |
| 20260505110814 | 61 | 53 | 0.0 | 2.6 | 0.00 | 0.00 | 0.00 | 62 | 1013.7 |
| 20260505110311 | 61 | 93 | 0.9 | 1.7 | 0.00 | 0.00 | 0.00 | 62 | 1013.7 |
| 20260505101745 | 60 | 91 | 0.9 | 0.9 | 0.00 | 0.00 | 0.00 | 63 | 1013.6 |
| 20260505101241 | 60 | 72 | 1.7 | 1.7 | 0.00 | 0.00 | 0.00 | 63 | 1013.3 |
| 20260505100738 | 60 | 112 | 0.9 | 0.9 | 0.00 | 0.00 | 0.00 | 64 | 1013.3 |
| 20260505100234 | 60 | 85 | 0.9 | 0.9 | 0.00 | 0.00 | 0.00 | 63 | 1013.2 |
| 20260505095729 | 60 | 92 | 0.9 | 1.7 | 0.00 | 0.00 | 0.00 | 63 | 1013.2 |
| 20260505095228 | 60 | 76 | 0.9 | 1.7 | 0.00 | 0.00 | 0.00 | 63 | 1013.2 |
| 20260505094723 | 60 | 82 | 0.9 | 1.7 | 0.00 | 0.00 | 0.00 | 63 | 1013.3 |
| 20260505094220 | 60 | 75 | 0.0 | 0.0 | 0.00 | 0.00 | 0.00 | 63 | 1013.0 |
| 20260505093716 | 60 | 185 | 0.9 | 1.7 | 0.00 | 0.00 | 0.00 | 64 | 1013.1 |
| 20260505093214 | 60 | 90 | 0.0 | 0.9 | 0.00 | 0.00 | 0.00 | 63 | 1013.0 |
| 20260505092710 | 60 | 81 | 0.0 | 0.9 | 0.00 | 0.00 | 0.00 | 63 | 1012.9 |
| 20260505092210 | 60 | 102 | 0.9 | 1.7 | 0.00 | 0.00 | 0.00 | 63 | 1013.1 |
| 20260505091706 | 60 | 101 | 0.9 | 1.7 | 0.00 | 0.00 | 0.00 | 64 | 1013.0 |
| 20260505091204 | 59 | 103 | 0.9 | 1.7 | 0.00 | 0.00 | 0.00 | 64 | 1013.1 |
| 20260505090701 | 60 | 76 | 0.0 | 0.0 | 0.00 | 0.00 | 0.00 | 62 | 1013.1 |
| 20260505090159 | 61 | 82 | 0.0 | 1.7 | 0.00 | 0.00 | 0.00 | 62 | 1013.0 |
| 20260505085657 | 60 | 101 | 0.9 | 5.2 | 0.00 | 0.00 | 0.00 | 62 | 1013.0 |
| 20260505085155 | 60 | 104 | 1.7 | 2.6 | 0.00 | 0.00 | 0.00 | 63 | 1013.0 |
| 20260505084652 | 60 | 110 | 0.0 | 0.9 | 0.00 | 0.00 | 0.00 | 63 | 1013.1 |
| 20260505084150 | 60 | 102 | 0.0 | 0.9 | 0.00 | 0.00 | 0.00 | 62 | 1012.9 |
| 20260505083647 | 60 | 186 | 2.6 | 2.6 | 0.00 | 0.00 | 0.00 | 62 | 1012.9 |
| 20260505083144 | 60 | 73 | 0.0 | 0.0 | 0.00 | 0.00 | 0.00 | 61 | 1013.0 |
| 20260505082640 | 60 | 136 | 0.9 | 1.7 | 0.00 | 0.00 | 0.00 | 62 | 1013.3 |
| 20260505082137 | 60 | 77 | 0.0 | 0.9 | 0.00 | 0.00 | 0.00 | 62 | 1013.3 |
| 20260505081633 | 60 | 75 | 0.0 | 0.9 | 0.00 | 0.00 | 0.00 | 62 | 1013.2 |
| 20260505081131 | 60 | 79 | 0.0 | 1.7 | 0.00 | 0.00 | 0.00 | 61 | 1013.2 |
| 20260505080627 | 61 | 87 | 0.9 | 0.9 | 0.00 | 0.00 | 0.00 | 60 | 1013.1 |
| 20260505080123 | 61 | 81 | 0.0 | 0.9 | 0.00 | 0.00 | 0.00 | 60 | 1013.1 |
| 20260505075620 | 61 | 81 | 0.0 | 0.9 | 0.00 | 0.00 | 0.00 | 59 | 1012.9 |
| 20260505075116 | 61 | 74 | 0.0 | 0.0 | 0.00 | 0.00 | 0.00 | 59 | 1013.1 |
| 20260505074613 | 62 | 82 | 0.0 | 0.9 | 0.00 | 0.00 | 0.00 | 58 | 1012.8 |
| 20260505074110 | 62 | 90 | 0.0 | 0.9 | 0.00 | 0.00 | 0.00 | 58 | 1013.2 |
| 20260505073608 | 62 | 57 | 0.9 | 2.6 | 0.00 | 0.00 | 0.00 | 57 | 1013.1 |
| 20260505073106 | 62 | 113 | 0.9 | 2.6 | 0.00 | 0.00 | 0.00 | 57 | 1013.2 |
| 20260505072601 | 62 | 160 | 0.9 | 2.6 | 0.00 | 0.00 | 0.00 | 57 | 1013.1 |
| 20260505072058 | 63 | 128 | 1.7 | 1.7 | 0.00 | 0.00 | 0.00 | 56 | 1013.0 |
| 20260505071553 | 62 | 171 | 1.7 | 2.6 | 0.00 | 0.00 | 0.00 | 56 | 1013.0 |
| 20260505071052 | 63 | 100 | 0.9 | 0.9 | 0.00 | 0.00 | 0.00 | 56 | 1013.3 |
| 20260505070549 | 63 | 320 | 2.6 | 5.2 | 0.00 | 0.00 | 0.00 | 56 | 1013.1 |
| 20260505070044 | 63 | 122 | 2.6 | 5.2 | 0.00 | 0.00 | 0.00 | 56 | 1013.1 |
| 20260505065541 | 63 | 137 | 1.7 | 2.6 | 0.00 | 0.00 | 0.00 | 56 | 1013.2 |
| 20260505065038 | 62 | 190 | 1.7 | 2.6 | 0.00 | 0.00 | 0.00 | 56 | 1013.2 |
| 20260505064534 | 62 | 94 | 1.7 | 4.3 | 0.00 | 0.00 | 0.00 | 56 | 1013.1 |
| 20260505064033 | 62 | 99 | 0.9 | 2.6 | 0.00 | 0.00 | 0.00 | 57 | 1013.2 |
| 20260505063530 | 62 | 71 | 0.0 | 0.9 | 0.00 | 0.00 | 0.00 | 57 | 1013.1 |
| 20260505063025 | 62 | 72 | 0.0 | 0.9 | 0.00 | 0.00 | 0.00 | 57 | 1013.2 |
| 20260505062523 | 62 | 75 | 0.0 | 0.9 | 0.00 | 0.00 | 0.00 | 57 | 1013.1 |
| 20260505062020 | 62 | 73 | 0.0 | 0.9 | 0.00 | 0.00 | 0.00 | 56 | 1013.2 |
| 20260505061517 | 62 | 91 | 0.9 | 1.7 | 0.00 | 0.00 | 0.00 | 57 | 1013.1 |
| 20260505061015 | 62 | 91 | 0.9 | 0.9 | 0.00 | 0.00 | 0.00 | 56 | 1012.9 |
| 20260505060512 | 61 | 205 | 3.5 | 5.2 | 0.00 | 0.00 | 0.00 | 57 | 1013.1 |
| 20260505060009 | 61 | 104 | 0.9 | 2.6 | 0.00 | 0.00 | 0.00 | 56 | 1013.2 |
| 20260505055504 | 62 | 101 | 1.7 | 1.7 | 0.00 | 0.00 | 0.00 | 56 | 1013.1 |
| 20260505055001 | 61 | 116 | 0.9 | 2.6 | 0.00 | 0.00 | 0.00 | 56 | 1013.0 |
| 20260505054458 | 62 | 78 | 0.9 | 2.6 | 0.00 | 0.00 | 0.00 | 55 | 1012.9 |
| 20260505053956 | 61 | 116 | 1.7 | 5.2 | 0.00 | 0.00 | 0.00 | 56 | 1013.1 |
| 20260505053453 | 61 | 92 | 0.0 | 1.7 | 0.00 | 0.00 | 0.00 | 56 | 1013.1 |
| 20260505052950 | 61 | 112 | 0.0 | 1.7 | 0.00 | 0.00 | 0.00 | 56 | 1013.1 |
| 20260505052447 | 61 | 89 | 0.0 | 0.9 | 0.00 | 0.00 | 0.00 | 55 | 1013.2 |
| 20260505051944 | 61 | 85 | 0.9 | 4.3 | 0.00 | 0.00 | 0.00 | 54 | 1013.2 |
| 20260505051441 | 61 | 94 | 0.9 | 1.7 | 0.00 | 0.00 | 0.00 | 54 | 1013.2 |
| 20260505050939 | 62 | 90 | 0.0 | 1.7 | 0.00 | 0.00 | 0.00 | 54 | 1013.2 |
| 20260505050437 | 62 | 97 | 0.9 | 1.7 | 0.00 | 0.00 | 0.00 | 53 | 1013.2 |
| 20260505041405 | 62 | 84 | 0.0 | 0.9 | 0.00 | 0.00 | 0.00 | 52 | 1013.3 |
| 20260505040901 | 62 | 86 | 1.7 | 2.6 | 0.00 | 0.00 | 0.00 | 51 | 1013.3 |
| 20260505040359 | 62 | 107 | 1.7 | 2.6 | 0.00 | 0.00 | 0.00 | 50 | 1013.1 |
| 20260505035856 | 62 | 100 | 2.6 | 2.6 | 0.00 | 0.00 | 0.00 | 50 | 1013.1 |
| 20260505035351 | 62 | 106 | 0.9 | 0.9 | 0.00 | 0.00 | 0.00 | 50 | 1013.0 |
| 20260505034849 | 62 | 152 | 1.7 | 2.6 | 0.00 | 0.00 | 0.00 | 49 | 1013.0 |
| 20260505034345 | 63 | 145 | 2.6 | 4.3 | 0.00 | 0.00 | 0.00 | 49 | 1013.1 |
| 20260505033843 | 63 | 107 | 0.9 | 2.6 | 0.00 | 0.00 | 0.00 | 48 | 1013.2 |
| 20260505033339 | 62 | 118 | 0.9 | 4.3 | 0.00 | 0.00 | 0.00 | 48 | 1013.2 |
| 20260505032838 | 63 | 112 | 1.7 | 2.6 | 0.00 | 0.00 | 0.00 | 48 | 1013.1 |
| 20260505032334 | 63 | 106 | 0.9 | 1.7 | 0.00 | 0.00 | 0.00 | 47 | 1013.2 |
| 20260505031831 | 63 | 130 | 1.7 | 5.2 | 0.00 | 0.00 | 0.00 | 47 | 1013.4 |
| 20260505031327 | 63 | 133 | 0.9 | 2.6 | 0.00 | 0.00 | 0.00 | 47 | 1013.1 |
| 20260505030825 | 64 | 83 | 0.9 | 2.6 | 0.00 | 0.00 | 0.00 | 46 | 1013.4 |
| 20260505030321 | 64 | 97 | 0.9 | 4.3 | 0.00 | 0.00 | 0.00 | 46 | 1013.3 |
| 20260505025816 | 64 | 179 | 2.6 | 2.6 | 0.00 | 0.00 | 0.00 | 46 | 1013.2 |
| 20260505025314 | 63 | 92 | 0.9 | 0.9 | 0.00 | 0.00 | 0.00 | 47 | 1013.1 |
| 20260505024812 | 63 | 107 | 0.9 | 1.7 | 0.00 | 0.00 | 0.00 | 46 | 1013.2 |
| 20260505024310 | 63 | 119 | 0.9 | 1.7 | 0.00 | 0.00 | 0.00 | 46 | 1013.3 |
| 20260505023807 | 63 | 99 | 0.9 | 1.7 | 0.00 | 0.00 | 0.00 | 47 | 1013.3 |
| 20260505023304 | 62 | 90 | 0.9 | 0.9 | 0.00 | 0.00 | 0.00 | 47 | 1013.6 |
| 20260505022801 | 62 | 86 | 0.9 | 0.9 | 0.00 | 0.00 | 0.00 | 48 | 1013.5 |
| 20260505022258 | 63 | 83 | 0.0 | 0.9 | 0.00 | 0.00 | 0.00 | 47 | 1013.5 |
| 20260505021755 | 63 | 81 | 0.0 | 0.9 | 0.00 | 0.00 | 0.00 | 46 | 1013.5 |
| 20260505021251 | 63 | 91 | 1.7 | 1.7 | 0.00 | 0.00 | 0.00 | 46 | 1013.6 |
| 20260505020748 | 63 | 82 | 0.0 | 0.9 | 0.00 | 0.00 | 0.00 | 46 | 1013.5 |
| 20260505020243 | 63 | 58 | 0.9 | 0.9 | 0.00 | 0.00 | 0.00 | 47 | 1013.5 |
| 20260505015740 | 63 | 68 | 0.0 | 0.9 | 0.00 | 0.00 | 0.00 | 46 | 1013.5 |
| 20260505015237 | 63 | 67 | 0.0 | 0.9 | 0.00 | 0.00 | 0.00 | 46 | 1013.3 |
| 20260505014734 | 64 | 71 | 0.0 | 0.9 | 0.00 | 0.00 | 0.00 | 45 | 1013.3 |
| 20260505014232 | 64 | 124 | 2.6 | 2.6 | 0.00 | 0.00 | 0.00 | 44 | 1013.4 |
| 20260505013728 | 64 | 81 | 0.0 | 1.7 | 0.00 | 0.00 | 0.00 | 44 | 1013.6 |
| 20260505013225 | 64 | 76 | 0.0 | 0.9 | 0.00 | 0.00 | 0.00 | 44 | 1013.4 |
| 20260505012724 | 65 | 81 | 0.0 | 0.9 | 0.00 | 0.00 | 0.00 | 43 | 1013.2 |
| 20260505012220 | 64 | 92 | 0.0 | 0.9 | 0.00 | 0.00 | 0.00 | 44 | 1013.4 |
| 20260505011715 | 64 | 89 | 0.0 | 0.9 | 0.00 | 0.00 | 0.00 | 44 | 1013.4 |
| 20260505011214 | 64 | 99 | 0.9 | 0.9 | 0.00 | 0.00 | 0.00 | 45 | 1013.3 |
| 20260505010709 | 64 | 82 | 0.0 | 0.0 | 0.00 | 0.00 | 0.00 | 44 | 1013.2 |
| 20260505010206 | 64 | 84 | 0.9 | 0.9 | 0.00 | 0.00 | 0.00 | 44 | 1013.1 |
| 20260505005701 | 64 | 82 | 0.0 | 0.9 | 0.00 | 0.00 | 0.00 | 44 | 1013.0 |
| 20260505005159 | 65 | 84 | 0.0 | 0.0 | 0.00 | 0.00 | 0.00 | 43 | 1013.0 |
| 20260505004656 | 64 | 108 | 0.9 | 0.9 | 0.00 | 0.00 | 0.00 | 43 | 1013.1 |
| 20260505004152 | 65 | 83 | 0.0 | 0.0 | 0.00 | 0.00 | 0.00 | 43 | 1013.0 |
| 20260505003649 | 65 | 85 | 0.0 | 0.9 | 0.00 | 0.00 | 0.00 | 43 | 1013.0 |
| 20260505003147 | 65 | 81 | 0.0 | 0.0 | 0.00 | 0.00 | 0.00 | 42 | 1012.8 |
| 20260505002643 | 66 | 84 | 0.0 | 0.0 | 0.00 | 0.00 | 0.00 | 42 | 1012.9 |
| 20260505002141 | 66 | 81 | 0.0 | 0.0 | 0.00 | 0.00 | 0.00 | 41 | 1013.0 |
| 20260505001638 | 67 | 82 | 0.0 | 1.7 | 0.00 | 0.00 | 0.00 | 41 | 1012.9 |
| 20260505001136 | 67 | 49 | 0.0 | 0.9 | 0.00 | 0.00 | 0.00 | 40 | 1012.7 |
| 20260505000633 | 68 | 94 | 1.7 | 2.6 | 0.00 | 0.00 | 0.00 | 39 | 1012.8 |
| 20260505000131 | 68 | 84 | 0.0 | 0.9 | 0.00 | 0.00 | 0.00 | 39 | 1012.8 |
| 20260504235627 | 68 | 92 | 1.7 | 1.7 | 0.00 | 0.00 | 0.00 | 38 | 1012.8 |
| 20260504235123 | 68 | 163 | 2.6 | 2.6 | 0.00 | 0.00 | 0.00 | 38 | 1012.7 |
| 20260504234620 | 69 | 98 | 0.0 | 0.9 | 0.00 | 0.00 | 0.00 | 38 | 1012.7 |
| 20260504234118 | 69 | 111 | 1.7 | 1.7 | 0.00 | 0.00 | 0.00 | 37 | 1012.7 |
| 20260504233613 | 69 | 113 | 0.9 | 0.9 | 0.00 | 0.00 | 0.00 | 37 | 1012.7 |
| 20260504233110 | 69 | 126 | 2.6 | 4.3 | 0.00 | 0.00 | 0.00 | 36 | 1012.7 |
| 20260504232607 | 70 | 108 | 0.9 | 2.6 | 0.00 | 0.00 | 0.00 | 36 | 1012.7 |
| 20260504232105 | 71 | 113 | 0.9 | 1.7 | 0.00 | 0.00 | 0.00 | 35 | 1012.6 |
| 20260504231601 | 71 | 139 | 2.6 | 2.6 | 0.00 | 0.00 | 0.00 | 34 | 1012.7 |
| 20260504231057 | 71 | 98 | 0.9 | 1.7 | 0.00 | 0.00 | 0.00 | 35 | 1012.6 |
| 20260504230553 | 72 | 105 | 1.7 | 5.2 | 0.00 | 0.00 | 0.00 | 34 | 1012.5 |
| 20260504230053 | 72 | 147 | 0.9 | 4.3 | 0.00 | 0.00 | 0.00 | 34 | 1012.7 |
| 20260504225549 | 72 | 50 | 1.7 | 5.2 | 0.00 | 0.00 | 0.00 | 33 | 1012.7 |
| 20260504225046 | 73 | 126 | 0.9 | 2.6 | 0.00 | 0.00 | 0.00 | 33 | 1012.7 |
| 20260504224543 | 73 | 150 | 2.6 | 5.2 | 0.00 | 0.00 | 0.00 | 32 | 1012.5 |
| 20260504224040 | 73 | 207 | 2.6 | 6.1 | 0.00 | 0.00 | 0.00 | 32 | 1012.5 |
| 20260504223537 | 72 | 110 | 1.7 | 4.3 | 0.00 | 0.00 | 0.00 | 32 | 1012.6 |
| 20260504223033 | 73 | 68 | 1.7 | 4.3 | 0.00 | 0.00 | 0.00 | 31 | 1012.7 |
| 20260504222530 | 73 | 146 | 1.7 | 4.3 | 0.00 | 0.00 | 0.00 | 32 | 1012.7 |
| 20260504222027 | 73 | 253 | 4.3 | 7.8 | 0.00 | 0.00 | 0.00 | 33 | 1012.7 |
| 20260504221524 | 73 | 208 | 2.6 | 4.3 | 0.00 | 0.00 | 0.00 | 32 | 1012.7 |
| 20260504221021 | 73 | 74 | 1.7 | 4.3 | 0.00 | 0.00 | 0.00 | 32 | 1012.8 |
| 20260504220518 | 73 | 188 | 3.5 | 5.2 | 0.00 | 0.00 | 0.00 | 32 | 1012.7 |
| 20260504220015 | 73 | 231 | 3.5 | 5.2 | 0.00 | 0.00 | 0.00 | 32 | 1012.8 |
| 20260504215511 | 73 | 103 | 1.7 | 4.3 | 0.00 | 0.00 | 0.00 | 32 | 1012.7 |
| 20260504215009 | 73 | 152 | 4.3 | 7.0 | 0.00 | 0.00 | 0.00 | 32 | 1012.7 |
| 20260504214504 | 73 | 103 | 0.9 | 2.6 | 0.00 | 0.00 | 0.00 | 32 | 1012.8 |
| 20260504214001 | 73 | 125 | 0.9 | 2.6 | 0.00 | 0.00 | 0.00 | 32 | 1012.8 |
| 20260504213456 | 74 | 79 | 2.6 | 4.3 | 0.00 | 0.00 | 0.00 | 32 | 1012.9 |
| 20260504212955 | 74 | 165 | 1.7 | 5.2 | 0.00 | 0.00 | 0.00 | 32 | 1012.9 |
| 20260504212450 | 74 | 214 | 3.5 | 7.0 | 0.00 | 0.00 | 0.00 | 32 | 1012.9 |
| 20260504211948 | 73 | 148 | 2.6 | 7.0 | 0.00 | 0.00 | 0.00 | 33 | 1012.8 |
| 20260504211444 | 74 | 230 | 3.5 | 5.2 | 0.00 | 0.00 | 0.00 | 33 | 1012.8 |
| 20260504210942 | 74 | 289 | 3.5 | 7.8 | 0.00 | 0.00 | 0.00 | 33 | 1012.9 |
| 20260504210438 | 74 | 8 | 2.6 | 4.3 | 0.00 | 0.00 | 0.00 | 32 | 1012.8 |
| 20260504205935 | 74 | 295 | 3.5 | 6.1 | 0.00 | 0.00 | 0.00 | 33 | 1012.7 |
| 20260504205433 | 73 | 67 | 1.7 | 6.1 | 0.00 | 0.00 | 0.00 | 33 | 1012.8 |
| 20260504204931 | 73 | 186 | 4.3 | 6.1 | 0.00 | 0.00 | 0.00 | 32 | 1012.7 |
| 20260504204429 | 73 | 143 | 5.2 | 7.0 | 0.00 | 0.00 | 0.00 | 33 | 1012.8 |
| 20260504203928 | 73 | 68 | 2.6 | 7.0 | 0.00 | 0.00 | 0.00 | 33 | 1012.9 |
| 20260504203425 | 73 | 165 | 5.2 | 6.1 | 0.00 | 0.00 | 0.00 | 33 | 1012.8 |
| 20260504202921 | 73 | 210 | 3.5 | 7.0 | 0.00 | 0.00 | 0.00 | 33 | 1012.9 |
| 20260504202418 | 75 | 6 | 4.3 | 8.7 | 0.00 | 0.00 | 0.00 | 32 | 1013.1 |
| 20260504201914 | 74 | 158 | 2.6 | 6.1 | 0.00 | 0.00 | 0.00 | 32 | 1013.0 |
| 20260504201412 | 73 | 232 | 1.7 | 4.3 | 0.00 | 0.00 | 0.00 | 33 | 1012.9 |
| 20260504200909 | 73 | 49 | 3.5 | 6.1 | 0.00 | 0.00 | 0.00 | 32 | 1013.0 |
| 20260504200406 | 72 | 18 | 1.7 | 2.6 | 0.00 | 0.00 | 0.00 | 33 | 1013.0 |
| 20260504195903 | 73 | 269 | 4.3 | 8.7 | 0.00 | 0.00 | 0.00 | 32 | 1013.3 |
| 20260504195358 | 73 | 214 | 2.6 | 4.3 | 0.00 | 0.00 | 0.00 | 33 | 1013.2 |
| 20260504194855 | 74 | 205 | 2.6 | 4.3 | 0.00 | 0.00 | 0.00 | 33 | 1013.1 |
| 20260504194351 | 73 | 122 | 2.6 | 6.1 | 0.00 | 0.00 | 0.00 | 32 | 1013.2 |
| 20260504193847 | 73 | 161 | 2.6 | 2.6 | 0.00 | 0.00 | 0.00 | 33 | 1013.2 |
| 20260504193344 | 73 | 166 | 5.2 | 8.7 | 0.00 | 0.00 | 0.00 | 34 | 1013.2 |
| 20260504192843 | 73 | 194 | 3.5 | 4.3 | 0.00 | 0.00 | 0.00 | 33 | 1013.2 |
| 20260504192341 | 73 | 138 | 4.3 | 6.1 | 0.00 | 0.00 | 0.00 | 32 | 1013.5 |
| 20260504191839 | 73 | 291 | 3.5 | 4.3 | 0.00 | 0.00 | 0.00 | 32 | 1013.5 |
| 20260504191337 | 73 | 159 | 0.9 | 8.7 | 0.00 | 0.00 | 0.00 | 33 | 1013.4 |
| 20260504190832 | 73 | 210 | 3.5 | 4.3 | 0.00 | 0.00 | 0.00 | 31 | 1013.6 |
| 20260504190328 | 73 | 99 | 1.7 | 2.6 | 0.00 | 0.00 | 0.00 | 32 | 1013.5 |
| 20260504185825 | 73 | 75 | 1.7 | 6.1 | 0.00 | 0.00 | 0.00 | 33 | 1013.6 |
| 20260504185321 | 72 | 117 | 1.7 | 5.2 | 0.00 | 0.00 | 0.00 | 33 | 1013.7 |
| 20260504184818 | 73 | 207 | 4.3 | 9.6 | 0.00 | 0.00 | 0.00 | 33 | 1013.8 |
| 20260504184314 | 72 | 120 | 1.7 | 2.6 | 0.00 | 0.00 | 0.00 | 33 | 1013.8 |
| 20260504183809 | 72 | 157 | 3.5 | 6.1 | 0.00 | 0.00 | 0.00 | 33 | 1013.9 |
| 20260504183307 | 72 | 148 | 2.6 | 5.2 | 0.00 | 0.00 | 0.00 | 32 | 1014.0 |
| 20260504182804 | 72 | 340 | 2.6 | 4.3 | 0.00 | 0.00 | 0.00 | 33 | 1014.1 |
| 20260504182304 | 73 | 149 | 3.5 | 6.1 | 0.00 | 0.00 | 0.00 | 34 | 1014.1 |
| 20260504181759 | 71 | 72 | 4.3 | 7.8 | 0.00 | 0.00 | 0.00 | 32 | 1014.1 |
| 20260504181256 | 71 | 71 | 0.9 | 6.1 | 0.00 | 0.00 | 0.00 | 32 | 1014.3 |
| 20260504180755 | 72 | 211 | 3.5 | 7.0 | 0.00 | 0.00 | 0.00 | 32 | 1014.4 |
| 20260504180253 | 71 | 148 | 2.6 | 5.2 | 0.00 | 0.00 | 0.00 | 32 | 1014.3 |
| 20260504175751 | 71 | 151 | 4.3 | 7.0 | 0.00 | 0.00 | 0.00 | 32 | 1014.5 |
| 20260504175247 | 71 | 201 | 2.6 | 7.8 | 0.00 | 0.00 | 0.00 | 32 | 1014.5 |
| 20260504174745 | 71 | 274 | 2.6 | 6.1 | 0.00 | 0.00 | 0.00 | 32 | 1014.6 |
| 20260504174243 | 70 | 45 | 5.2 | 7.0 | 0.00 | 0.00 | 0.00 | 33 | 1014.6 |
| 20260504173739 | 70 | 72 | 4.3 | 7.8 | 0.00 | 0.00 | 0.00 | 32 | 1014.6 |
| 20260504173236 | 70 | 231 | 2.6 | 6.1 | 0.00 | 0.00 | 0.00 | 32 | 1014.9 |
| 20260504172733 | 70 | 349 | 4.3 | 7.0 | 0.00 | 0.00 | 0.00 | 32 | 1014.9 |
| 20260504172230 | 70 | 256 | 4.3 | 7.0 | 0.00 | 0.00 | 0.00 | 32 | 1014.9 |
| 20260504171726 | 70 | 191 | 3.5 | 7.0 | 0.00 | 0.00 | 0.00 | 32 | 1015.0 |
| 20260504171223 | 69 | 191 | 2.6 | 4.3 | 0.00 | 0.00 | 0.00 | 33 | 1014.8 |
| 20260504170720 | 69 | 192 | 0.9 | 4.3 | 0.00 | 0.00 | 0.00 | 33 | 1015.2 |
| 20260504170217 | 69 | 136 | 4.3 | 7.0 | 0.00 | 0.00 | 0.00 | 32 | 1015.3 |
| 20260504160136 | 68 | 199 | 4.3 | 7.0 | 0.00 | 0.00 | 0.00 | 33 | 1015.9 |